Temp
16 15 14 13 13 13 12 12 12 12 12 12 12 11 10 10 10 10 10 10 10 10 10 9 9 9 8 8 8 8 8 8 9 9 9 9 9 8 8 8 7 7 7
16 15 15 14 13 13 12 11 11 11 12 12 11 11 10 10 10 10 10 10 10 9 9 9 9 8 8 8 8 8 8 8 7 7 7 8 8 7 7 7 7 7 7
17 16 15 14 13 12 12 11 11 11 11 11 11 11 11 10 10 9 9 9 9 8 8 8 8 8 7 7 7 7 7 7 7 6 6 7 7 7 8 7 7 7 7
17 15 14 13 13 11 11 11 10 11 11 11 11 11 10 10 9 8 8 8 8 8 8 8 8 7 7 7 7 7 7 6 6 6 6 6 5 5 5 6 6 6 6
15 14 12 12 11 10 11 10 11 11 11 11 11 11 10 10 9 9 9 8 8 8 7 7 7 7 7 7 6 6 6 6 6 5 5 5 5 5 4 4 5 6 6
13 12 11 10 10 10 11 10 10 11 11 11 11 11 10 10 9 9 8 8 6 6 6 7 7 7 7 6 6 6 6 6 6 5 5 4 4 4 3 3 4 4 5
11 11 10 10 10 10 10 10 10 11 11 11 10 10 10 9 8 8 8 7 6 6 6 6 6 6 6 6 6 6 6 6 5 5 5 4 4 4 3 3 3 3 4
11 10 10 9 9 10 10 10 10 10 10 10 10 9 9 8 8 8 7 7 7 6 7 7 7 7 7 6 6 6 6 5 5 5 4 4 4 3 3 2 2 2 2
11 10 9 9 9 9 10 10 10 10 10 9 8 8 8 8 7 7 7 7 7 7 7 7 7 7 6 6 6 5 5 5 4 4 4 3 3 3 3 2 1 1 -0
11 10 9 9 9 9 10 10 9 9 9 8 7 7 7 7 7 7 7 7 7 7 7 7 6 6 6 5 5 5 4 4 4 3 3 2 2 1 1 1 1 0 -0
11 10 9 9 9 9 9 9 9 9 8 7 7 7 7 7 7 7 7 7 7 6 6 6 6 5 5 4 4 4 3 3 3 3 2 2 2 1 1 0 -0 -0 -0
11 10 9 8 8 8 8 8 8 8 8 7 7 7 7 7 7 7 6 6 6 6 5 5 5 5 4 4 3 3 3 2 2 2 2 2 1 1 1 0 -0 -1 -1
11 10 9 8 8 8 9 9 9 8 8 7 7 7 7 6 6 6 6 5 5 5 5 5 4 4 4 3 3 2 2 1 1 1 1 1 1 0 0 -0 -1 -1 -1
12 11 9 8 8 8 8 8 8 8 7 7 7 6 6 6 6 6 5 5 5 4 4 4 4 3 3 2 2 1 1 1 1 1 1 0 -0 -1 -1 -2 -2 -2 -2
12 11 10 9 8 7 7 6 6 6 6 6 6 6 6 5 5 5 4 4 4 4 4 4 3 3 2 2 1 1 1 1 1 0 0 -0 -1 -2 -3 -3 -3 -3 -3
11 11 10 9 8 8 7 6 5 5 5 5 5 5 5 5 4 4 4 4 4 4 3 3 2 2 2 1 1 0 -0 -0 -0 -1 -1 -1 -1 -2 -3 -3 -3 -4 -4
10 10 10 10 9 8 7 6 5 5 5 5 5 5 4 4 4 4 3 3 3 3 3 2 2 1 1 1 0 0 -0 -1 -1 -2 -3 -3 -3 -5 -5 -5 -4 -4 -4
10 10 9 9 8 7 6 5 4 4 4 4 4 4 3 3 3 3 3 3 3 3 2 2 1 0 0 0 0 -0 -0 -1 -1 -3 -4 -5 -5 -5 -5 -4 -4 -4 -4
9 9 9 8 7 6 5 5 4 3 4 3 3 3 3 3 2 3 3 3 3 2 1 1 0 0 0 0 -0 -1 -1 -1 -2 -3 -5 -5 -5 -5 -5 -4 -4 -4 -4
8 8 7 6 6 5 5 4 3 3 3 3 3 2 2 2 2 2 2 2 2 1 1 0 -0 -0 -0 -0 -1 -2 -3 -3 -4 -5 -5 -5 -5 -5 -5 -5 -5 -5 -4
7 6 5 5 5 4 3 3 2 3 3 2 2 2 2 2 2 2 2 1 1 1 0 -0 -0 -1 -1 -1 -1 -2 -4 -4 -5 -5 -5 -5 -5 -5 -5 -5 -5 -5 -4
5 4 4 3 3 3 3 3 2 2 2 2 2 2 1 1 2 2 2 1 1 0 -0 -1 -1 -1 -1 -1 -1 -2 -3 -5 -5 -5 -5 -5 -5 -5 -5 -5 -5 -5 -5
4 3 2 2 2 2 2 2 2 2 2 2 2 1 1 2 2 1 1 0 -0 -0 -1 -1 -1 -1 -1 -1 -2 -2 -3 -4 -6 -5 -5 -6 -5 -5 -5 -5 -6 -5 -5
3 2 2 2 2 2 2 2 2 1 1 1 1 1 1 1 1 -0 -0 -1 -1 -1 -1 -2 -2 -2 -2 -2 -2 -2 -3 -5 -6 -6 -5 -6 -6 -6 -6 -6 -5 -5 -6
2 2 2 2 2 2 2 1 1 1 0 1 1 1 1 -0 -1 -1 -1 -1 -1 -2 -2 -2 -3 -3 -3 -2 -3 -4 -6 -6 -6 -6 -6 -6 -6 -6 -6 -6 -5 -5 -6
2 2 2 2 1 1 1 1 1 1 1 1 0 -0 -1 -1 -2 -2 -2 -1 -2 -2 -2 -3 -3 -3 -3 -3 -4 -4 -5 -6 -6 -6 -6 -6 -6 -6 -6 -6 -6 -6 -6
Height
1520 1523 1525 1528 1530 1532 1533 1533 1533 1534 1536 1536 1536 1535 1535 1534 1534 1533 1533 1532 1531 1530 1529 1528 1527 1526 1525 1523 1522 1520 1517 1515 1512 1509 1507 1505 1504 1504 1503 1503 1502 1501 1499
1516 1519 1521 1524 1526 1528 1530 1531 1531 1532 1533 1534 1534 1533 1533 1533 1532 1532 1530 1529 1528 1527 1527 1526 1525 1523 1522 1521 1519 1518 1516 1514 1512 1509 1505 1503 1503 1503 1502 1501 1500 1500 1498
1512 1515 1517 1520 1522 1524 1526 1527 1529 1530 1530 1531 1531 1531 1530 1530 1530 1529 1527 1526 1525 1525 1524 1523 1522 1521 1519 1518 1517 1516 1514 1512 1512 1509 1509 1504 1503 1500 1499 1499 1499 1498 1496
1511 1511 1513 1516 1519 1521 1523 1524 1525 1527 1528 1528 1528 1527 1527 1527 1527 1526 1525 1524 1522 1521 1521 1520 1519 1518 1516 1515 1514 1513 1512 1511 1509 1509 1507 1505 1503 1500 1496 1495 1494 1494 1493
1509 1511 1512 1514 1516 1518 1519 1521 1523 1524 1524 1525 1525 1525 1524 1524 1523 1523 1521 1520 1519 1518 1518 1518 1516 1515 1514 1512 1511 1511 1510 1508 1507 1506 1505 1502 1500 1499 1496 1489 1488 1490 1490
1507 1509 1511 1513 1513 1515 1517 1519 1520 1521 1522 1523 1522 1522 1522 1521 1521 1520 1518 1518 1517 1517 1516 1515 1514 1513 1511 1510 1509 1507 1506 1505 1503 1502 1501 1499 1497 1495 1494 1489 1484 1482 1480
1506 1508 1509 1510 1511 1513 1515 1517 1518 1519 1520 1520 1520 1519 1519 1518 1518 1517 1516 1516 1515 1515 1514 1514 1512 1511 1509 1507 1506 1504 1503 1501 1499 1497 1496 1494 1492 1490 1489 1486 1482 1478 1473
1504 1506 1507 1509 1510 1512 1514 1516 1517 1517 1518 1517 1517 1516 1516 1516 1516 1515 1515 1515 1514 1513 1512 1511 1510 1509 1507 1505 1503 1500 1498 1497 1495 1492 1491 1489 1487 1486 1484 1481 1479 1472 1468
1503 1505 1507 1508 1510 1512 1513 1514 1515 1515 1515 1515 1514 1514 1514 1514 1514 1514 1513 1513 1512 1512 1511 1509 1507 1506 1504 1501 1499 1497 1494 1492 1490 1488 1485 1483 1481 1479 1477 1476 1475 1473 1465
1505 1506 1508 1509 1510 1511 1512 1513 1513 1513 1513 1513 1513 1513 1513 1513 1513 1513 1512 1512 1511 1510 1508 1507 1505 1502 1500 1497 1495 1493 1490 1487 1485 1482 1480 1477 1475 1473 1472 1470 1468 1467 1463
1504 1504 1505 1507 1508 1509 1510 1511 1511 1511 1511 1511 1511 1511 1512 1512 1512 1511 1511 1510 1509 1507 1506 1504 1502 1499 1496 1493 1491 1488 1485 1482 1479 1477 1474 1471 1469 1467 1465 1464 1462 1459 1457
1502 1504 1505 1506 1507 1508 1509 1509 1509 1509 1510 1510 1510 1511 1511 1510 1510 1509 1508 1508 1507 1505 1503 1501 1499 1496 1493 1490 1487 1484 1481 1477 1474 1471 1468 1465 1463 1460 1459 1457 1454 1452 1450
1499 1499 1499 1499 1500 1501 1502 1503 1503 1504 1505 1506 1506 1507 1507 1507 1507 1506 1506 1505 1504 1503 1501 1498 1495 1492 1489 1486 1483 1479 1476 1473 1470 1466 1463 1460 1457 1454 1451 1449 1446 1444 1442
1496 1497 1498 1498 1499 1499 1499 1499 1499 1499 1499 1500 1501 1502 1503 1503 1503 1503 1502 1502 1501 1499 1497 1494 1491 1488 1484 1481 1477 1474 1470 1467 1464 1461 1457 1454 1451 1448 1445 1442 1439 1436 1433
1495 1494 1493 1494 1495 1496 1497 1498 1499 1499 1499 1500 1501 1501 1502 1502 1501 1501 1500 1498 1497 1495 1492 1489 1486 1482 1479 1476 1472 1468 1464 1460 1457 1454 1451 1448 1445 1442 1439 1436 1432 1429 1426
1492 1492 1492 1491 1492 1493 1493 1495 1495 1496 1497 1498 1498 1498 1499 1500 1500 1499 1497 1495 1493 1490 1487 1484 1480 1477 1474 1471 1467 1462 1457 1453 1449 1446 1443 1440 1437 1434 1431 1428 1425 1424 1420
1491 1490 1489 1488 1487 1488 1489 1489 1491 1491 1492 1493 1493 1495 1495 1496 1497 1495 1493 1491 1488 1485 1482 1478 1475 1471 1469 1465 1461 1457 1452 1447 1443 1439 1435 1431 1429 1427 1423 1420 1418 1416 1414
1489 1487 1485 1484 1483 1484 1485 1486 1487 1489 1490 1490 1491 1492 1493 1492 1492 1491 1489 1485 1484 1480 1476 1472 1469 1466 1463 1459 1455 1450 1445 1441 1437 1433 1429 1426 1423 1421 1418 1414 1410 1408 1406
1485 1483 1481 1480 1480 1480 1480 1482 1484 1486 1489 1490 1490 1490 1489 1488 1487 1485 1484 1482 1478 1474 1470 1467 1463 1459 1456 1453 1449 1444 1439 1435 1430 1426 1423 1420 1417 1415 1413 1408 1403 1400 1396
1483 1479 1478 1477 1477 1477 1478 1480 1483 1484 1486 1487 1487 1487 1485 1484 1481 1482 1479 1475 1472 1468 1464 1460 1457 1454 1450 1447 1443 1438 1433 1427 1422 1419 1415 1413 1411 1408 1406 1402 1397 1391 1386
1479 1477 1475 1475 1475 1475 1477 1478 1481 1483 1484 1484 1483 1482 1480 1479 1478 1475 1471 1468 1464 1460 1457 1453 1450 1447 1444 1440 1436 1432 1427 1421 1417 1413 1408 1405 1403 1400 1397 1394 1389 1384 1378
1476 1475 1474 1474 1474 1475 1476 1478 1479 1481 1482 1481 1479 1478 1478 1475 1472 1468 1464 1461 1457 1453 1450 1446 1443 1441 1438 1434 1429 1425 1421 1417 1412 1407 1402 1398 1394 1391 1387 1383 1379 1375 1370
1474 1474 1473 1474 1475 1475 1475 1477 1478 1479 1479 1477 1475 1472 1471 1468 1465 1461 1456 1453 1451 1447 1443 1440 1436 1433 1430 1426 1423 1418 1413 1409 1405 1399 1394 1390 1385 1381 1376 1372 1369 1366 1361
1474 1474 1474 1474 1475 1475 1476 1476 1477 1476 1474 1472 1469 1467 1464 1461 1458 1454 1450 1447 1443 1440 1437 1433 1429 1426 1422 1419 1414 1410 1404 1400 1395 1390 1385 1381 1377 1373 1368 1363 1359 1357 1353
1472 1474 1473 1474 1475 1475 1475 1475 1473 1472 1469 1467 1463 1460 1456 1453 1449 1446 1443 1440 1437 1434 1430 1426 1423 1418 1414 1411 1407 1402 1398 1394 1389 1384 1378 1372 1368 1363 1358 1353 1351 1348 1344
1473 1473 1474 1474 1475 1474 1472 1471 1470 1467 1464 1460 1457 1453 1449 1446 1442 1439 1434 1434 1430 1427 1424 1420 1417 1412 1407 1403 1399 1395 1390 1386 1382 1376 1370 1364 1360 1356 1351 1347 1343 1340 1336
Wind_Speed
16 17 16 16 17 15 16 17 15 13 10 10 10 9 8 8 10 11 12 13 13 13 13 14 14 14 13 13 13 14 14 14 14 16 15 8 8 9 8 10 13 13 16
22 21 20 18 18 18 18 17 16 13 12 11 11 10 10 10 12 13 16 16 14 15 14 15 15 15 15 14 14 15 16 15 16 16 12 8 5 7 10 17 13 16 16
20 17 16 16 16 17 17 17 15 15 14 12 12 10 10 11 10 11 14 15 15 15 15 14 15 16 16 15 15 15 15 17 14 14 10 5 3 16 6 9 14 14 18
13 15 15 14 14 15 15 16 17 14 13 13 12 12 13 12 11 13 16 16 18 16 14 13 14 15 15 15 16 16 16 17 16 14 12 12 13 8 11 7 10 19 18
15 13 11 11 11 16 16 16 14 13 13 12 12 12 12 12 12 13 14 14 12 12 11 12 13 14 14 14 14 15 16 17 18 17 17 17 16 16 17 27 23 22 21
11 11 12 13 16 15 13 12 12 12 10 10 10 11 12 11 12 12 12 11 9 10 11 12 12 12 12 13 14 16 17 18 20 20 20 20 20 20 16 22 32 33 32
11 13 14 15 13 12 12 11 10 8 8 9 11 11 11 11 10 9 8 7 6 6 10 12 13 13 14 16 17 18 19 19 20 21 21 22 23 23 25 26 31 35 38
13 13 13 14 12 12 11 10 8 8 9 11 11 10 8 7 6 5 5 5 5 7 9 10 12 13 15 16 17 19 20 21 22 23 23 24 24 23 25 28 29 36 37
15 14 14 14 14 12 11 9 8 9 10 9 8 7 6 5 5 4 4 4 5 8 11 13 15 16 17 18 19 20 21 21 21 22 24 25 26 26 26 26 27 29 32
13 13 15 15 12 12 11 9 9 9 8 7 7 6 5 4 2 1 3 6 9 11 13 15 16 17 18 18 19 20 20 21 22 23 24 25 26 27 27 28 29 30 34
15 15 16 16 15 14 12 11 9 8 7 6 5 5 4 3 2 4 6 9 11 12 14 15 17 18 19 20 21 21 22 23 24 24 25 26 26 27 28 28 28 30 32
14 14 15 15 15 14 13 11 9 8 7 7 7 5 4 4 5 6 8 9 10 11 14 16 18 20 21 21 21 22 22 23 24 26 26 27 27 27 27 28 29 29 30
12 15 18 20 20 19 18 15 14 12 11 10 10 9 8 6 7 7 7 7 10 13 16 19 21 22 23 22 22 22 23 25 26 26 27 28 27 29 29 29 29 29 29
13 16 18 19 19 20 20 19 17 16 14 14 13 11 10 8 7 6 6 9 13 17 20 22 23 25 25 24 23 24 26 28 28 28 28 27 27 28 28 29 31 32 36
9 15 20 20 20 20 20 19 17 16 14 14 13 12 9 8 7 7 9 13 17 21 24 26 27 26 26 25 25 27 29 30 31 30 29 28 27 26 28 32 34 31 29
11 11 16 19 21 22 22 21 18 18 15 14 13 12 10 9 9 10 13 17 21 25 27 28 28 27 26 26 26 28 30 31 32 33 31 29 28 28 28 29 29 28 27
13 14 15 20 23 23 23 23 21 19 17 16 14 11 10 9 11 14 18 22 25 30 30 30 28 28 26 24 24 26 29 30 31 32 31 30 28 25 28 28 28 28 28
19 19 16 16 19 20 21 20 19 20 16 13 11 9 9 10 13 19 25 30 33 32 31 30 28 27 26 25 26 28 31 32 32 32 28 26 29 28 28 28 32 32 32
21 21 18 13 15 18 20 21 20 17 13 10 8 7 8 13 18 24 30 33 33 33 31 29 27 27 26 25 27 29 31 32 32 31 28 25 28 30 28 29 31 34 37
21 20 15 10 13 16 19 18 16 12 10 8 5 8 13 18 26 28 33 32 31 31 29 28 26 25 27 27 27 29 32 34 34 32 31 30 25 27 27 28 32 37 41
21 17 11 10 12 14 14 11 10 9 9 6 7 14 22 28 26 32 33 32 31 30 28 28 26 26 27 28 28 29 29 30 31 31 32 35 34 31 31 31 34 39 38
17 11 8 8 11 12 9 10 10 9 8 11 19 26 30 27 31 33 32 31 30 29 28 28 28 27 28 28 30 30 28 26 27 33 35 36 33 35 36 34 34 33 35
13 8 7 10 9 8 8 8 8 9 15 24 29 27 27 30 33 33 33 32 30 29 29 28 29 29 29 30 29 30 30 27 27 32 35 35 37 38 38 37 32 31 35
9 7 7 7 6 6 7 7 10 17 25 28 26 29 32 35 35 34 32 31 30 29 29 29 30 30 31 29 30 31 32 32 34 34 37 38 37 35 34 35 32 33 33
7 6 5 6 6 7 8 14 19 25 26 27 31 34 36 36 36 34 31 30 30 29 29 30 30 32 33 30 31 31 30 31 34 34 38 39 35 36 38 35 29 34 32
4 4 4 4 10 14 17 21 24 25 28 32 34 35 36 35 33 33 34 30 30 29 29 30 30 31 32 32 32 32 31 29 30 34 38 41 36 41 32 35 34 31 32
Wind_Direction
211 204 213 206 209 211 218 230 243 245 253 268 295 309 307 298 297 299 296 298 300 305 312 315 318 320 323 327 329 333 334 334 333 335 337 352 337 327 320 329 311 309 308
193 203 220 220 220 219 225 224 239 242 252 267 284 286 269 279 287 291 293 296 298 302 306 308 310 309 309 313 317 324 328 333 333 337 343 342 332 288 317 310 309 306 301
205 218 227 221 219 219 227 225 233 237 252 269 281 281 279 284 289 300 301 303 302 301 302 304 306 306 304 305 308 314 321 324 331 326 331 327 299 301 284 303 291 307 314
184 210 209 224 219 214 224 222 224 240 250 266 274 280 285 288 285 277 281 284 290 296 298 303 307 308 305 303 304 308 314 315 318 317 313 305 296 303 303 289 281 299 301
213 203 196 223 217 216 222 224 226 236 251 267 278 284 287 287 288 291 293 298 302 302 303 304 309 312 311 308 304 304 305 309 310 309 306 301 299 291 281 294 304 297 291
174 195 212 210 208 218 217 213 223 239 255 269 280 287 288 289 290 292 294 298 297 298 309 314 321 320 318 314 309 308 308 307 305 304 301 298 296 296 282 280 293 295 301
188 196 199 198 211 202 201 210 225 240 259 277 285 287 287 289 291 296 303 303 297 291 291 307 312 314 313 312 311 309 309 308 306 306 304 299 297 296 293 289 291 294 300
191 203 195 198 204 201 204 212 226 255 272 279 281 281 282 284 290 305 313 311 309 306 308 315 320 320 317 314 311 309 309 308 306 304 302 301 299 295 292 289 292 295 295
194 199 194 207 213 209 209 222 242 260 269 275 275 279 280 282 291 294 300 313 324 325 325 323 321 320 317 314 312 310 309 306 304 302 300 299 299 298 296 292 288 283 283
198 203 211 211 218 216 222 233 248 261 273 266 260 263 265 260 248 272 325 331 330 328 327 327 327 326 324 322 319 317 313 308 306 304 302 300 299 298 296 294 291 285 279
212 218 226 223 223 227 232 242 252 259 254 244 240 232 210 208 269 311 322 326 330 333 334 336 337 336 334 331 326 322 317 313 311 308 305 303 302 297 295 293 290 286 282
230 228 236 238 233 235 239 245 249 252 247 232 220 210 213 239 275 303 320 331 339 346 347 346 344 340 336 333 329 323 320 317 316 315 311 308 307 302 299 292 287 286 286
232 227 229 237 239 233 235 238 242 242 235 221 216 216 229 253 282 303 319 337 343 345 344 341 339 336 333 331 329 324 321 320 317 316 314 312 307 304 302 299 294 290 286
250 236 238 249 251 246 241 238 237 236 228 218 218 224 238 257 276 288 310 328 335 335 335 335 334 333 330 330 328 324 321 317 317 316 314 312 308 303 302 298 294 293 293
298 251 242 250 250 249 249 246 244 237 232 224 226 237 252 266 272 292 313 323 327 330 331 332 330 329 327 328 326 322 317 316 314 315 315 312 306 296 288 287 290 293 289
325 297 272 261 245 242 247 247 239 242 235 230 235 245 258 269 281 303 316 323 327 328 327 327 326 325 324 325 322 318 316 315 315 315 313 311 307 303 294 290 288 291 292
327 311 293 274 260 245 245 248 242 238 232 230 238 249 262 276 300 315 324 326 327 326 324 324 322 321 320 322 319 321 321 319 319 318 317 311 307 309 305 307 309 303 300
332 325 305 284 263 245 239 240 239 236 235 233 243 257 276 302 322 328 326 330 321 319 320 320 320 318 324 325 324 324 324 324 323 320 317 307 302 307 312 308 304 297 300
320 318 315 282 259 239 232 231 235 237 235 243 259 282 309 322 327 329 319 309 313 316 317 315 317 321 323 326 326 325 322 321 319 320 319 313 303 305 305 299 297 299 299
314 309 304 271 241 229 230 236 237 226 234 246 271 311 321 324 320 302 306 308 310 310 311 314 317 319 321 327 327 324 322 319 320 319 314 319 313 305 304 299 296 298 301
312 303 284 248 233 234 243 229 219 230 236 241 294 313 311 305 298 300 304 307 309 308 310 312 316 318 323 325 325 325 316 313 312 309 305 312 312 305 301 298 296 297 302
308 299 268 241 231 243 241 216 223 240 255 283 303 303 299 295 300 304 305 305 306 307 308 310 311 316 322 324 323 320 314 304 299 301 303 308 313 311 306 301 300 299 306
301 290 243 247 249 236 221 237 254 270 297 301 296 299 300 302 305 304 305 305 304 302 304 305 309 316 320 322 322 320 316 307 299 302 306 306 308 309 306 304 300 303 309
288 283 248 254 251 245 254 267 292 305 304 302 300 304 306 307 307 306 304 302 301 301 301 303 307 311 315 323 327 323 321 318 311 310 310 308 305 305 303 302 307 308 312
280 270 243 248 265 281 293 301 308 307 301 303 306 306 307 307 306 306 304 302 299 300 299 300 305 308 312 321 325 322 313 310 304 304 306 307 309 311 312 309 308 313 313
294 272 273 288 299 294 297 303 301 302 306 306 306 308 308 307 306 306 305 302 301 302 300 299 301 306 311 317 320 319 316 308 305 305 303 308 310 316 312 313 311 311 315